This demonstration page uses our WeatherBlox Daily Observations layout. Learn more.

Left ArrowRight Arrow

40.92945, -100.16068

Hourly Observations for June 8, 2020

Temp ( °F °C ) Dew Point ( °F °C ) Humidity (%) Winds ( mph kmh ) Pressure ( in mb ) Visibility ( mi km ) Precip ( " mm )
12:15 am 00:15 Clear 78 25.5 55 12.8 45 45 SSE 29 46 29.5 999 10 16.0934 0 0
12:35 am 00:35 Clear 77 25.2 55 13 47 47 SSE 26 43 29.5 999 10 16.0934 0 0
12:55 am 00:55 Clear 77 24.8 56 13.1 48 48 S 26 43 29.5 999 10 16.0934 0 0
1:15 am 01:15 Clear 76 24.5 56 13.2 49 49 S 26 43 29.51 999 10 16.0934 0 0
1:35 am 01:35 Clear 75 24 56 13.5 52 52 S 30 48 29.5 999 10 16.0934 0 0
1:55 am 01:55 Clear 75 23.7 57 13.8 54 54 S 29 46 29.5 999 10 16.0934 0 0
2:15 am 02:15 Clear 74 23.5 57 14.1 56 56 S 25 41 29.5 999 10 16.0934 0 0
2:35 am 02:35 Clear 74 23.4 58 14.5 57 57 S 25 41 29.5 999 10 16.0934 0 0
2:55 am 02:55 Clear 74 23.1 59 15 60 60 S 26 43 29.51 999 10 16.0934 0 0
3:15 am 03:15 Clear 73 23 59 15.2 62 62 S 23 37 29.51 999 10 16.0934 0 0
3:35 am 03:35 Clear 73 22.6 60 15.6 65 65 S 23 37 29.51 999 10 16.0934 0 0
3:55 am 03:55 Clear 73 22.6 61 16 66 66 S 24 39 29.51 999 10 16.0934 0 0
4:15 am 04:15 Clear 72 22.3 61 16.2 69 69 S 26 43 29.51 999 10 16.0934 0 0
4:35 am 04:35 Clear 72 22.3 62 16.5 70 70 S 24 39 29.51 999 10 16.0934 0 0
4:55 am 04:55 Clear 72 22.2 62 16.7 71 71 S 24 39 29.51 999 10 16.0934 0 0
5:15 am 05:15 Clear 72 22.1 62 16.7 72 72 S 21 33 29.53 1000 10 16.0934 0 0
5:35 am 05:35 Clear 71 21.8 62 16.8 73 73 S 18 30 29.54 1000 10 16.0934 0 0
5:55 am 05:55 Clear 71 21.6 62 16.8 74 74 S 16 26 29.55 1001 10 16.0934 0 0
6:15 am 06:15 Sunny 71 21.4 62 16.7 75 75 S 18 30 29.55 1001 10 16.0934 0 0
6:35 am 06:35 Sunny 71 21.5 62 16.6 74 74 S 15 24 29.56 1001 10 16.0934 0 0
6:55 am 06:55 Partly Cloudy 71 21.8 62 16.6 72 72 SW 12 19 29.59 1002 10 16.0934 0 0
7:15 am 07:15 Mostly Cloudy 72 22 62 16.8 72 72 SSW 14 22 29.59 1002 10 16.0934 0 0
7:35 am 07:35 Cloudy 72 22 63 17 73 73 SSW 12 19 29.6 1002 10 16.0934 0 0
7:55 am 07:55 Cloudy 72 22.1 63 17.1 73 73 SSW 12 19 29.6 1002 10 16.0934 0 0
8:15 am 08:15 Cloudy 72 22.2 63 17.3 74 74 S 9 15 29.59 1002 10 16.0934 0 0
8:35 am 08:35 Cloudy 72 22.3 64 17.5 74 74 S 10 17 29.59 1002 10 16.0934 0 0
8:55 am 08:55 Cloudy 72 22.4 64 17.6 74 74 S 14 22 29.6 1002 10 16.0934 0 0
9:15 am 09:15 Cloudy 73 22.7 64 18 75 75 S 13 20 29.6 1002 10 16.0934 0 0
9:35 am 09:35 Cloudy 74 23.2 65 18.3 74 74 S 16 26 29.6 1002 10 16.0934 0 0
9:55 am 09:55 Cloudy 75 23.8 65 18.4 72 72 S 16 26 29.58 1002 10 16.0934 0 0
10:15 am 10:15 Cloudy 77 25.1 66 18.7 68 68 S 17 28 29.57 1001 10 16.0934 0 0
10:35 am 10:35 Cloudy 78 25.5 66 19 67 67 S 17 28 29.57 1001 10 16.0934 0 0
10:55 am 10:55 Cloudy 79 26 66 19.1 66 66 S 18 30 29.56 1001 10 16.0934 0 0
11:15 am 11:15 Cloudy 79 26.2 66 18.9 64 64 S 16 26 29.56 1001 10 16.0934 0 0
11:35 am 11:35 Mostly Cloudy 81 27.2 66 19 61 61 S 15 24 29.55 1001 10 16.0934 0 0
11:55 am 11:55 Mostly Cloudy 81 27.1 66 19 61 61 S 17 28 29.55 1001 10 16.0934 0 0
12:15 pm 12:15 Cloudy 82 27.5 67 19.2 61 61 S 14 22 29.55 1001 10 16.0934 0 0
12:35 pm 12:35 Mostly Cloudy 84 28.8 67 19.4 57 57 S 16 26 29.53 1000 10 16.0934 0 0
12:55 pm 12:55 Mostly Cloudy 83 28.6 66 19 56 56 S 16 26 29.52 1000 10 16.0934 0 0
1:15 pm 13:15 Partly Cloudy 86 29.9 66 19 52 52 S 16 26 29.51 999 10 16.0934 0 0
1:35 pm 13:35 Mostly Cloudy 86 29.8 67 19.3 53 53 S 13 20 29.5 999 10 16.0934 0 0
1:55 pm 13:55 Partly Cloudy 87 30.7 66 18.7 49 49 S 15 24 29.5 999 10 16.0934 0 0
2:15 pm 14:15 Partly Cloudy 87 30.8 66 18.9 49 49 SSE 15 24 29.48 998 10 16.0934 0 0
2:35 pm 14:35 Partly Cloudy 89 31.6 66 19.1 47 47 SSE 14 22 29.47 998 10 16.0934 0 0
2:55 pm 14:55 Partly Cloudy 90 32.3 66 19.1 46 46 SSE 16 26 29.45 997 10 16.0934 0 0
3:15 pm 15:15 Partly Cloudy 90 32.1 65 18.6 45 45 S 17 28 29.44 997 10 16.0934 0 0
3:35 pm 15:35 Partly Cloudy 91 32.7 67 19.3 45 45 SSE 16 26 29.43 997 10 16.0934 0 0
3:55 pm 15:55 Partly Cloudy 90 32.4 66 18.7 44 44 SSE 16 26 29.43 997 10 16.0934 0 0
4:15 pm 16:15 Partly Cloudy 91 32.9 66 19 44 44 SSE 21 33 29.42 996 10 16.0934 0 0
4:35 pm 16:35 Partly Cloudy 90 32.3 66 18.7 44 44 SSE 20 31 29.42 996 10 16.0934 0 0
4:55 pm 16:55 Partly Cloudy 90 32.3 65 18.6 44 44 S 13 20 29.41 996 10 16.0934 0 0
5:15 pm 17:15 Partly Cloudy 91 32.6 65 18.6 43 43 SSE 16 26 29.4 996 10 16.0934 0 0
5:35 pm 17:35 Partly Cloudy 91 32.6 67 19.4 46 46 SE 18 30 29.4 996 10 16.0934 0 0
5:55 pm 17:55 Mostly Cloudy 91 32.5 67 19.4 46 46 SE 18 30 29.39 995 10 16.0934 0 0
6:15 pm 18:15 Partly Cloudy 90 32.1 67 19.3 47 47 ESE 23 37 29.39 995 10 16.0934 0 0
6:35 pm 18:35 Sunny 89 31.7 67 19.6 49 49 SSE 18 30 29.38 995 10 16.0934 0 0
6:55 pm 18:55 Sunny 89 31.5 66 19 47 47 SE 22 35 29.35 994 10 16.0934 0 0
7:15 pm 19:15 Sunny 88 31 66 18.7 48 48 SSE 24 39 29.34 994 10 16.0934 0 0
7:35 pm 19:35 Sunny 87 30.6 65 18.1 47 47 SE 25 41 29.34 993 10 16.0934 0 0
7:55 pm 19:55 Sunny 87 30.5 64 17.8 47 47 SE 24 39 29.34 993 10 16.0934 0 0
8:15 pm 20:15 Sunny with Nearby Thunderstorms 86 30 63 17.4 47 47 SSE 24 39 29.33 993 10 16.0934 0 0
8:35 pm 20:35 Sunny 85 29.5 63 17.1 47 47 SE 22 35 29.35 994 10 16.0934 0 0
8:55 pm 20:55 Sunny 84 29 64 18 51 51 SE 21 33 29.36 994 10 16.0934 0 0
9:15 pm 21:15 Clear 83 28.5 64 17.6 52 52 SE 20 31 29.36 994 10 16.0934 0 0
9:35 pm 21:35 Clear 83 28.2 64 17.5 52 52 SE 22 35 29.38 995 10 16.0934 0 0
9:55 pm 21:55 Clear 82 27.8 64 17.5 54 54 SE 21 33 29.39 995 10 16.0934 0 0
10:15 pm 22:15 Clear 81 27.2 65 18.1 58 58 SE 18 30 29.4 996 10 16.0934 0 0
10:35 pm 22:35 Clear 80 26.9 65 18.5 60 60 SE 22 35 29.42 996 10 16.0934 0 0
10:55 pm 22:55 Clear 80 26.4 65 18.1 60 60 SE 21 33 29.42 996 10 16.0934 0 0
11:15 pm 23:15 Clear 79 26 65 18.1 62 62 SSE 18 30 29.42 996 10 16.0934 0 0
11:35 pm 23:35 Clear 78 25.7 65 18.1 63 63 SE 20 31 29.43 996 10 16.0934 0 0
11:55 pm 23:55 Clear 78 25.5 65 18.1 64 64 SSE 20 31 29.43 997 10 16.0934 0 0

Powered by AerisWeather